RH
22 20 27 27 27 31 32 33 29 23 26 24 24 27 23 23 21 16 14 9 10 12 13 17 17 17 18 21 27 35 46 52 59 74 78 79 82 82 84 83 82 82 74 71 71 69 65 59 59 64 68 69 60 51 47 48 51 51 52 53 52 53 51 51 48 45 50 53 56 57 56 61 68 76 79 80 79 76 75 74 73 71 68 72 78 79
23 21 29 29 30 33 32 41 42 33 32 30 26 22 20 24 20 15 17 14 18 23 19 22 23 19 21 21 27 40 48 52 60 70 73 76 79 78 81 81 81 79 71 72 75 71 65 58 61 66 69 71 65 59 52 51 54 54 55 53 52 53 52 50 45 40 45 50 55 58 58 60 65 68 68 70 71 69 69 68 65 61 60 65 67 67
24 28 28 26 31 34 35 44 47 37 30 25 23 24 23 22 19 20 25 21 24 27 19 23 24 25 35 32 31 46 51 49 55 63 65 69 75 75 77 79 79 76 73 75 76 74 70 63 64 67 70 72 65 61 58 56 58 60 59 53 49 54 54 50 45 40 43 47 52 55 59 63 63 60 60 61 61 61 62 62 61 59 58 60 62 62
29 31 24 23 29 34 40 43 46 38 33 32 23 20 26 22 17 21 28 29 30 28 22 25 29 34 44 37 31 42 51 52 51 56 60 62 67 70 72 74 74 74 73 74 74 75 71 65 67 69 71 74 67 64 63 61 62 64 64 56 49 55 56 48 44 43 45 47 50 54 57 58 56 52 52 54 55 57 60 60 61 60 57 58 59 60
25 23 20 25 30 37 35 32 43 36 34 52 41 21 24 22 17 20 28 40 45 44 40 36 40 50 46 31 28 35 43 53 52 53 58 59 60 64 69 71 69 69 69 70 72 73 70 69 72 70 70 74 71 67 64 63 65 65 66 59 48 51 53 46 45 47 46 46 51 55 55 54 54 53 53 56 59 61 63 62 62 61 57 56 56 57
22 19 21 26 32 38 28 24 43 38 29 49 52 37 28 22 23 25 31 46 49 45 44 35 39 62 61 37 32 33 35 45 51 55 57 56 58 61 68 71 66 67 67 66 69 67 67 72 75 71 70 73 73 69 64 61 62 63 68 60 45 48 52 50 51 50 46 46 49 52 53 54 58 60 60 60 64 66 65 65 64 63 60 58 57 56
20 18 23 33 35 35 28 20 33 41 32 32 44 47 35 29 31 30 32 40 42 39 42 39 38 57 61 41 36 33 29 33 38 46 52 52 55 59 65 67 64 66 66 67 68 64 66 74 77 75 72 72 72 69 63 61 60 61 68 59 44 50 57 55 54 49 45 46 47 48 49 50 55 61 63 63 66 66 65 65 63 61 60 60 59 59
26 21 24 34 33 28 28 24 29 42 34 30 49 46 29 31 34 37 37 32 36 38 44 55 46 45 52 41 37 33 23 24 27 30 38 46 51 56 63 63 61 63 64 68 69 65 67 73 77 76 73 70 68 67 64 63 61 60 65 56 45 57 60 52 50 45 44 46 47 48 46 47 54 61 64 64 63 62 62 62 61 59 59 60 61 62
31 25 23 27 28 24 27 31 33 35 25 31 51 39 21 26 31 40 36 30 42 36 39 63 47 36 59 55 42 35 24 23 27 27 33 43 50 56 63 63 60 61 61 65 66 64 66 70 72 71 70 68 66 67 64 63 63 61 64 55 48 63 62 47 46 45 44 46 46 45 43 48 57 62 63 62 61 62 64 64 64 64 61 60 61 62
27 23 23 23 26 27 29 32 29 27 25 29 36 27 21 26 32 38 34 41 59 42 41 68 44 29 60 68 49 34 26 28 30 32 37 45 51 56 62 62 60 59 59 60 60 61 64 64 66 68 69 69 67 69 66 65 66 64 68 61 51 63 62 47 47 46 43 45 42 39 41 49 58 62 61 59 62 67 67 65 63 63 60 58 57 58
19 19 23 20 21 27 27 25 21 18 21 24 26 25 28 35 43 55 59 53 50 46 56 67 48 35 51 66 59 36 31 39 36 35 40 48 55 58 59 59 57 57 56 56 56 58 62 60 62 66 69 69 69 74 74 71 71 69 72 65 55 62 61 50 50 47 44 44 37 35 42 50 57 60 58 59 65 68 65 61 59 57 55 54 53 52
24 17 19 18 17 18 15 15 16 14 16 21 27 30 36 45 52 66 76 56 38 51 65 59 47 44 47 60 61 41 36 41 35 36 40 44 50 51 52 52 52 55 55 56 59 62 65 64 64 66 69 70 71 76 78 77 76 74 74 68 60 62 60 53 51 49 47 42 33 37 47 52 56 57 55 59 65 65 60 55 54 54 52 52 51 50
38 27 18 15 15 13 11 14 14 14 18 22 29 37 40 42 46 58 66 57 51 55 56 50 41 42 53 60 51 39 37 33 30 34 35 39 47 49 52 55 55 58 59 62 68 70 71 71 70 69 69 71 71 74 76 78 79 78 76 70 64 65 63 57 54 52 47 38 34 45 52 52 53 53 53 60 63 62 57 52 53 53 49 48 47 46
39 39 25 14 15 13 12 17 17 18 20 16 23 37 41 41 45 56 60 57 59 55 52 50 38 43 58 53 43 40 36 33 32 34 39 48 56 58 59 60 60 62 64 67 71 75 77 77 74 71 71 71 71 73 75 75 77 79 78 72 69 74 73 64 59 55 45 36 38 48 52 51 52 50 52 59 61 59 55 52 52 47 38 37 37 36
35 43 36 21 19 15 11 16 20 25 21 15 22 28 33 46 54 56 56 57 57 55 55 49 42 54 55 38 39 39 31 37 43 45 54 60 63 64 61 60 61 64 67 69 70 75 79 78 75 71 70 72 72 75 77 76 77 80 84 87 87 87 82 70 63 56 45 42 44 47 50 52 51 48 50 57 59 56 54 54 52 44 34 33 31 31
25 35 37 22 16 14 11 12 15 19 21 23 26 22 23 41 53 52 56 70 70 56 51 49 49 60 57 44 44 39 34 45 51 54 63 67 68 68 67 66 65 65 68 71 72 76 78 75 75 73 71 72 74 76 79 81 81 81 86 90 86 82 77 68 62 55 45 43 48 48 51 52 50 48 49 54 58 55 54 54 52 45 40 38 37 36
25 34 32 16 12 13 11 12 11 12 23 29 22 24 30 31 40 47 49 61 64 55 54 53 45 46 50 48 42 36 40 48 52 58 64 70 73 72 72 72 69 70 74 77 80 82 82 78 76 78 77 75 76 76 80 84 83 78 77 77 78 80 78 70 65 59 46 41 47 51 53 52 51 51 49 50 55 56 55 56 53 49 47 45 43 42
36 38 32 18 12 14 11 12 13 11 20 25 17 25 32 24 36 57 54 46 46 53 57 52 45 43 47 54 49 39 40 42 50 62 65 72 75 72 74 73 72 76 78 80 84 84 85 82 78 79 81 80 79 76 78 81 79 73 69 70 80 89 85 74 67 60 48 39 42 49 53 52 51 52 49 47 52 56 56 56 55 53 52 51 48 43
41 34 33 27 14 15 16 14 19 19 17 16 15 21 26 28 41 50 47 45 48 53 50 43 50 50 45 54 56 45 40 39 49 63 69 73 75 72 75 74 75 80 80 81 85 85 86 84 79 78 78 81 83 80 78 78 74 71 67 65 77 89 86 76 69 67 67 56 44 44 49 51 50 49 48 47 51 55 55 55 56 56 54 53 51 46
45 35 38 37 18 15 26 27 25 27 22 19 21 20 27 43 50 40 39 46 47 49 50 46 52 59 59 59 54 48 46 43 51 66 71 71 74 74 74 76 78 80 80 83 85 86 87 84 78 75 73 74 77 78 80 81 78 76 71 66 75 87 87 80 72 72 74 62 47 46 49 50 48 49 50 48 48 52 54 53 53 55 55 53 54 52
47 37 41 45 30 23 31 28 21 22 21 24 30 26 29 45 46 37 42 47 42 47 61 58 54 67 78 68 52 47 47 47 56 67 70 70 72 73 73 76 79 80 82 83 83 85 86 81 76 73 72 70 69 69 71 75 76 77 77 75 79 87 88 84 76 70 66 55 48 51 52 50 49 52 55 51 47 50 53 53 51 52 55 54 54 55
44 43 47 48 40 33 32 22 15 18 15 17 29 31 38 52 48 40 45 51 47 47 61 67 62 67 75 66 54 49 47 53 60 63 69 73 73 75 77 76 78 81 83 82 81 82 83 80 75 72 72 71 72 72 69 67 67 71 79 82 84 87 88 85 78 72 69 62 56 55 54 53 51 50 53 51 47 47 50 52 51 50 52 54 53 55
56 61 51 42 36 27 23 19 16 17 15 18 27 32 39 52 58 58 61 62 53 41 53 69 66 66 75 72 61 53 51 57 60 62 71 74 73 77 77 77 80 82 82 81 81 83 80 76 73 71 71 72 75 79 78 73 67 67 76 82 85 87 88 86 81 74 71 69 65 63 64 68 65 56 52 52 50 49 51 51 50 48 48 51 53 54
59 57 39 40 51 43 27 23 23 20 21 27 32 36 35 36 50 63 66 71 58 35 43 58 52 59 75 71 60 57 58 61 62 64 68 70 72 73 71 75 79 78 79 79 79 80 75 68 67 67 67 69 72 78 82 83 80 77 81 84 82 83 84 82 76 73 73 74 74 73 72 76 77 67 61 61 58 53 53 52 50 50 49 51 55 57
47 50 50 53 59 57 46 40 39 30 27 32 32 34 32 30 44 52 54 68 61 38 49 64 56 61 69 59 56 61 62 63 64 63 64 67 67 66 65 69 71 72 75 74 74 75 72 68 66 63 62 63 66 71 77 82 86 87 88 88 83 82 80 72 68 73 79 79 76 75 72 69 70 66 68 77 77 68 66 65 59 55 53 53 57 59
46 60 80 76 56 53 60 58 46 30 31 38 32 30 33 34 40 42 49 66 59 42 57 71 68 69 63 51 58 64 60 62 64 61 61 62 60 59 60 61 64 68 69 68 70 71 68 67 65 61 58 57 59 65 69 74 80 84 86 88 87 88 84 77 76 81 84 79 73 74 73 69 69 69 70 80 84 78 81 84 74 64 60 57 57 58
56 61 80 87 69 60 65 57 37 24 30 35 27 29 40 44 44 45 52 61 57 52 61 66 66 63 47 42 55 64 62 62 62 60 60 60 58 57 58 59 62 65 65 66 67 64 61 61 61 58 53 52 54 56 58 63 69 75 79 81 82 84 84 83 84 83 81 77 73 74 74 69 70 73 70 69 72 73 78 80 73 67 65 63 61 61
62 50 53 66 61 50 44 37 27 24 26 26 26 33 41 48 51 46 39 40 45 53 59 61 63 56 42 44 53 56 60 63 63 64 63 61 59 56 55 59 61 62 63 63 63 61 59 60 61 56 49 48 50 50 50 53 57 63 69 72 74 76 77 77 76 72 72 72 73 74 73 68 67 70 70 70 72 75 74 70 65 63 63 61 60 57
65 51 40 41 41 37 35 32 31 30 28 28 34 38 38 44 49 40 35 41 45 47 51 54 57 54 48 52 55 52 57 62 62 61 58 58 61 60 59 61 61 61 59 58 59 60 58 59 61 55 46 44 46 46 45 45 46 49 54 58 62 65 68 69 67 65 66 66 66 66 66 67 66 66 69 73 74 74 72 68 67 67 66 64 62 59
62 54 41 41 44 41 36 34 34 34 35 37 41 44 45 48 49 44 44 53 56 56 61 63 60 54 47 48 54 55 56 56 55 54 53 53 59 65 69 72 72 71 65 58 57 55 53 57 59 53 46 43 43 44 41 39 40 41 42 45 48 51 57 61 61 62 60 60 65 70 72 74 74 72 72 69 64 61 60 62 66 68 67 68 68 68
57 49 48 64 67 51 40 37 37 38 40 44 50 56 58 53 54 58 60 62 64 62 63 65 63 56 48 48 52 52 51 53 53 55 56 54 54 58 64 69 72 74 71 63 59 57 54 55 54 49 45 42 41 42 41 38 37 37 39 40 40 40 43 46 47 47 45 44 53 64 67 64 62 63 62 55 48 46 46 49 54 55 55 57 59 61
58 49 52 74 75 55 43 40 41 44 48 55 62 66 67 59 54 61 65 64 66 63 62 68 65 56 52 53 54 52 51 53 54 56 57 55 54 56 61 66 71 74 74 68 65 62 58 56 54 50 45 39 36 37 38 40 39 37 38 38 36 35 35 36 36 37 38 37 38 43 44 41 42 45 44 42 41 43 45 47 48 48 48 51 53 54
64 60 55 70 74 57 48 50 55 56 57 65 69 67 69 65 58 62 67 66 68 68 69 69 61 52 53 55 55 55 54 54 55 56 55 54 54 57 63 69 73 77 81 78 74 71 68 66 63 56 45 37 33 33 35 36 36 34 33 32 32 31 30 30 30 31 33 32 30 31 30 28 32 35 34 34 36 39 42 41 40 40 41 41 42 46
63 69 60 68 69 52 51 65 68 61 59 68 73 70 67 62 60 70 73 69 70 68 66 64 58 54 56 56 56 57 55 53 52 50 51 52 53 56 62 68 70 72 77 79 78 78 74 67 61 58 53 41 33 32 33 33 33 31 29 29 30 29 28 30 31 31 31 30 29 30 28 27 29 31 31 32 32 33 34 33 33 33 34 34 34 36
51 56 54 68 74 60 62 72 68 61 62 67 68 65 64 60 60 66 67 65 68 66 62 62 60 57 56 55 56 56 54 50 47 45 46 49 50 52 58 65 69 69 71 74 77 78 73 62 52 52 53 46 36 32 31 32 32 32 31 30 30 31 31 30 30 30 31 32 31 30 29 29 30 31 32 32 31 31 30 30 31 31 32 33 33 34
55 56 50 57 66 63 59 62 65 63 63 71 73 66 65 69 68 68 69 64 65 66 63 60 60 57 55 52 52 54 54 49 45 45 45 45 48 49 51 57 67 72 72 71 69 67 65 59 52 47 44 40 35 31 30 30 29 29 31 30 31 33 33 31 30 29 30 32 31 30 30 30 30 32 34 34 32 31 30 30 31 31 31 31 30 31
50 58 52 45 56 69 65 60 65 62 57 72 81 68 63 67 67 73 78 66 59 63 61 56 58 58 53 50 52 57 60 54 49 48 46 44 47 47 45 48 57 66 67 58 49 44 43 45 47 47 43 38 34 31 31 30 29 29 30 31 32 33 32 32 31 30 31 31 30 30 30 29 29 32 35 35 35 33 32 32 33 33 32 30 29 30
39 47 46 40 52 75 78 68 64 63 64 77 81 69 62 62 59 70 83 72 59 60 59 53 56 58 54 51 53 56 58 59 58 54 49 46 47 46 42 41 42 47 50 45 40 35 32 32 38 44 47 47 44 39 36 34 31 30 30 32 33 33 32 32 32 31 32 33 32 32 31 30 30 33 35 36 36 35 35 35 35 35 34 30 28 31
47 58 64 60 57 67 76 74 71 73 78 83 80 71 65 64 62 68 79 74 58 56 58 52 51 56 56 53 54 56 59 63 62 56 50 47 45 43 43 41 38 35 35 35 36 34 31 30 32 33 37 41 41 38 37 35 32 32 31 30 30 31 31 31 31 31 31 32 31 31 32 32 32 32 34 35 36 37 37 37 36 36 36 35 33 35
63 75 81 75 68 68 73 77 83 88 83 75 75 72 63 60 61 66 76 74 58 54 59 52 47 53 56 55 56 57 57 58 54 49 48 45 40 39 40 40 38 36 34 33 32 32 31 31 30 30 30 30 30 29 29 29 29 31 32 30 29 30 30 29 29 29 29 30 31 30 32 33 33 32 32 33 34 35 35 36 36 36 40 42 41 41
74 82 80 71 71 75 77 81 91 96 82 69 71 69 59 59 67 75 81 74 60 56 55 48 46 51 52 53 54 50 49 50 47 45 46 44 41 42 41 38 37 37 36 35 33 32 32 31 30 31 30 29 29 28 27 27 27 29 30 30 31 31 30 29 29 28 28 29 30 30 32 33 34 34 33 32 32 33 33 33 35 38 43 46 47 47
75 83 84 77 76 78 79 84 94 94 83 74 70 59 55 72 87 82 70 59 53 53 51 47 49 51 50 53 52 48 48 50 48 48 48 48 48 49 45 42 40 38 37 37 36 36 36 35 33 34 34 33 32 30 29 29 28 28 29 31 31 29 27 28 28 29 30 31 31 32 32 33 34 35 34 34 34 34 34 34 37 42 47 48 49 49
69 82 85 78 77 81 84 89 96 91 76 72 72 61 59 74 76 61 52 52 52 52 51 50 51 51 51 53 52 52 53 51 50 53 54 54 54 53 49 46 45 43 41 40 39 38 39 39 38 38 39 38 36 34 33 31 30 28 27 27 28 26 25 26 27 28 30 31 32 33 33 34 35 35 35 36 35 35 35 35 37 43 47 49 50 50
63 73 76 69 70 81 88 88 88 81 62 57 65 63 58 58 52 48 52 55 54 53 52 52 53 54 54 54 55 58 57 54 56 60 59 58 57 55 53 49 46 47 46 43 42 42 41 41 42 43 43 41 40 38 36 34 34 34 30 27 27 27 27 28 29 31 32 31 31 32 33 34 36 35 35 35 35 34 34 33 35 40 46 50 51 50
53 53 60 60 59 67 73 68 63 59 53 51 56 57 56 53 51 55 57 53 52 54 53 51 54 58 58 57 59 61 59 60 64 64 61 62 62 59 57 52 48 48 47 46 45 44 42 43 44 45 45 44 43 42 40 38 37 37 37 34 33 33 32 32 32 33 34 35 35 35 35 35 34 34 35 35 34 34 33 34 36 39 45 52 54 53
43 46 57 58 53 55 59 56 51 50 51 55 55 56 57 55 54 58 58 54 55 58 56 54 56 59 61 62 63 65 64 66 69 67 65 66 64 60 57 54 52 50 49 49 48 45 45 46 45 46 47 47 46 46 46 44 42 39 38 37 37 38 37 36 36 36 35 36 37 36 36 36 35 34 34 33 34 35 36 36 37 38 44 53 57 58
44 50 56 54 57 64 63 60 58 55 57 62 61 59 60 59 58 59 58 57 60 63 63 62 62 64 67 66 67 69 70 70 71 70 68 68 67 64 61 58 56 52 50 50 49 46 48 49 49 52 54 52 51 50 50 50 48 45 42 40 38 39 39 39 39 38 36 37 37 36 37 37 37 37 37 37 37 39 40 40 39 40 47 57 63 65
49 51 50 48 59 70 67 61 60 58 61 67 66 63 64 65 65 65 64 65 68 69 69 68 68 70 73 71 72 74 75 73 73 72 69 69 68 65 63 60 57 55 53 54 55 55 57 58 59 60 60 58 56 54 53 53 51 48 48 47 45 43 42 42 42 41 40 39 38 38 39 39 39 40 40 40 42 43 44 44 43 44 51 60 67 69
57 59 54 53 66 76 74 68 64 61 63 66 66 67 69 69 70 73 73 72 74 77 78 76 73 72 74 77 80 83 83 82 81 79 78 77 74 70 68 66 64 65 65 65 65 64 64 64 64 63 62 60 58 55 55 55 53 52 52 51 52 52 50 48 46 45 44 43 42 41 41 40 41 42 42 43 46 49 52 55 56 58 62 65 67 67
70 69 68 74 82 85 80 74 70 70 72 69 67 69 72 73 75 79 80 80 82 83 83 82 79 77 78 80 82 86 89 88 84 82 84 83 80 78 76 75 75 76 75 73 71 70 68 68 67 65 63 61 58 57 57 57 57 57 56 56 57 59 58 57 55 52 49 48 45 44 43 41 41 43 45 48 51 55 60 65 69 71 70 68 67 68
70 69 77 86 83 76 73 71 70 74 78 75 71 72 74 77 81 83 83 84 84 82 82 85 87 86 84 81 77 80 84 83 79 79 81 81 79 77 76 77 78 78 77 75 74 74 73 72 70 70 70 68 66 65 64 63 61 59 58 58 58 59 60 61 62 60 58 55 51 49 48 46 44 45 48 51 55 59 64 72 78 80 78 76 76 77
Wind_Speed
3 2 2 4 6 7 8 8 8 8 8 6 2 2 3 3 5 8 8 3 8 8 4 6 7 2 2 5 7 5 5 7 10 10 10 10 9 9 10 10 9 8 7 10 15 18 18 19 18 18 20 24 30 31 32 30 28 28 27 27 26 24 24 23 23 23 21 22 23 23 21 18 16 15 14 13 11 9 8 6 4 4 4 4 5 4
3 3 7 9 10 10 9 7 7 7 5 1 2 1 5 2 4 8 5 4 4 6 0 1 8 5 4 3 5 9 8 8 11 12 11 12 11 9 11 11 9 6 4 7 11 15 18 21 20 20 23 25 27 30 30 29 27 26 25 25 25 23 22 21 22 23 22 22 23 24 23 21 18 15 13 13 12 11 10 9 6 4 4 4 5 5
1 4 11 13 10 6 6 4 5 5 2 1 1 1 4 3 4 7 5 6 5 5 1 0 6 5 7 3 4 13 12 9 12 14 14 14 11 9 11 12 10 7 7 7 9 11 16 19 20 22 24 25 27 29 28 27 26 24 24 23 24 24 21 21 22 22 21 21 21 22 24 24 21 17 14 13 11 10 9 8 6 5 4 4 3 5
2 7 12 12 7 5 5 4 3 1 2 1 1 2 2 4 1 4 6 6 5 3 1 2 3 2 5 4 2 9 10 9 10 11 11 12 13 13 13 12 11 11 11 10 9 9 12 16 18 22 23 23 26 28 27 27 26 25 24 23 24 24 22 22 22 21 20 20 21 22 24 23 20 17 14 12 11 9 8 7 6 4 4 4 5 5
7 10 7 5 6 8 6 5 3 3 3 3 3 3 3 2 2 4 5 5 6 5 3 5 5 4 4 5 2 0 4 7 8 8 9 9 10 10 9 10 12 13 13 13 12 9 10 13 17 21 23 23 26 28 28 28 27 25 24 24 24 24 23 23 22 20 20 21 23 24 23 21 19 17 14 14 12 11 10 9 7 5 4 5 5 5
10 12 6 4 5 8 7 5 4 5 0 4 4 6 6 4 5 6 5 5 6 6 3 5 3 5 4 4 4 3 3 8 8 10 11 8 6 7 8 10 10 10 11 13 14 13 11 12 16 20 23 24 25 27 28 28 26 25 24 23 24 25 23 22 20 20 21 22 24 25 24 22 22 19 16 16 15 13 12 10 9 7 6 6 5 5
7 9 7 6 6 7 7 5 4 6 5 2 5 6 6 5 4 4 2 3 3 2 3 4 5 4 5 4 6 3 5 9 7 8 10 9 8 9 9 10 10 10 9 9 11 11 10 13 16 18 22 24 25 26 28 27 25 25 24 23 25 25 21 20 21 22 22 23 24 24 23 22 22 21 18 17 16 14 13 11 9 8 7 6 6 6
4 3 5 5 5 6 4 3 5 6 7 3 7 5 6 5 6 5 4 4 2 3 4 4 5 2 4 5 5 1 4 4 6 6 7 9 11 11 10 11 11 11 10 8 8 8 9 13 16 19 22 25 27 28 29 28 26 26 25 24 26 24 21 22 24 24 24 24 25 24 22 22 22 22 20 18 17 16 15 13 12 10 9 7 7 7
3 3 7 6 4 4 3 5 7 6 5 6 7 5 5 6 7 6 6 4 0 1 4 6 3 3 4 6 4 2 4 4 7 5 7 11 13 12 11 11 10 10 10 10 10 10 10 13 19 23 25 26 28 31 31 30 28 27 26 26 27 24 23 26 26 25 25 25 25 24 23 23 22 22 22 20 19 18 17 16 14 13 12 9 8 7
4 7 9 7 5 4 6 7 6 7 4 6 3 1 0 3 3 4 5 3 4 4 2 6 1 2 3 5 5 4 2 3 4 3 5 10 12 11 10 10 9 8 9 10 11 11 13 18 22 25 26 25 27 30 31 31 30 30 29 29 29 26 26 29 27 26 26 25 25 24 24 24 24 24 23 21 21 19 18 17 15 14 13 11 9 8
6 5 5 4 4 6 5 5 5 7 6 3 2 4 5 5 4 3 3 4 4 2 5 6 2 5 1 5 3 2 2 4 5 1 1 7 10 10 10 9 9 9 9 10 9 8 11 17 19 21 23 24 26 26 28 31 31 32 31 31 31 28 27 30 29 27 27 25 24 24 25 25 26 27 25 24 24 21 19 18 17 16 14 13 11 10
6 2 3 3 4 5 4 0 2 1 2 2 4 4 4 4 5 5 4 4 3 2 6 6 1 7 2 5 4 5 5 2 7 6 6 8 8 8 8 8 8 8 8 7 6 6 7 9 11 15 18 21 23 23 25 29 30 32 33 32 32 30 29 30 29 28 27 26 25 25 25 25 27 27 26 26 26 23 21 19 18 17 15 14 12 10
5 3 4 4 2 4 5 1 4 4 4 5 4 5 4 2 4 3 3 2 1 3 5 4 2 4 2 5 6 7 8 2 3 6 9 10 8 8 8 8 7 6 7 6 6 6 6 7 9 13 16 19 22 23 25 27 28 30 31 32 32 30 29 29 28 27 26 26 26 26 25 25 26 25 25 26 26 24 22 21 21 19 17 15 14 13
3 5 5 3 3 1 6 4 2 3 1 4 3 4 4 2 3 1 3 1 1 3 4 2 3 1 3 3 4 5 4 1 4 6 7 9 10 9 8 8 8 7 7 6 6 5 5 6 9 14 17 20 22 22 24 26 27 29 29 30 29 23 22 24 23 23 24 25 25 24 25 26 25 24 24 25 25 24 22 21 22 20 19 18 16 15
1 4 3 2 2 1 4 5 7 4 2 3 4 5 4 4 4 3 3 2 2 3 4 4 2 2 2 2 4 3 6 7 8 8 8 9 8 8 9 9 9 8 7 6 6 6 4 5 10 16 18 19 20 20 22 23 23 22 19 14 10 13 15 19 20 21 23 23 22 21 24 26 25 24 24 24 24 23 22 21 20 19 19 19 18 17
3 4 6 4 4 6 5 4 5 6 2 3 2 6 2 4 6 3 3 5 4 1 2 2 0 3 3 2 3 4 8 9 10 10 11 10 7 8 9 8 8 7 6 6 6 5 5 7 7 12 18 19 18 19 19 19 19 17 13 10 6 9 14 22 25 26 25 22 20 20 23 24 24 25 24 24 23 22 21 20 18 17 18 18 18 18
2 4 7 4 1 3 5 4 5 5 2 1 2 2 4 4 7 5 1 2 4 3 2 1 1 3 2 2 4 5 7 8 9 10 11 10 7 8 8 6 6 6 6 5 5 5 5 8 10 6 13 18 18 19 18 18 19 19 19 21 18 15 19 26 28 28 27 25 21 20 22 24 25 26 25 23 23 22 21 19 17 16 17 17 17 18
4 2 6 3 4 4 3 2 2 3 5 3 1 3 2 3 4 4 2 2 4 2 4 1 2 1 1 1 4 6 4 3 4 7 11 11 9 9 7 7 7 6 6 6 5 6 6 8 12 12 9 14 18 19 19 18 19 20 21 22 22 19 21 25 26 27 29 28 26 22 21 24 26 25 24 22 21 22 21 20 18 17 17 17 16 16
4 0 7 3 2 5 5 5 4 4 2 5 4 2 3 3 1 1 2 1 2 2 3 2 0 1 1 3 4 4 0 1 3 2 6 8 9 9 7 7 8 7 7 6 6 6 6 9 12 14 14 12 14 16 18 20 19 20 21 20 19 18 20 22 22 22 21 21 24 25 23 24 25 24 23 22 21 22 21 21 21 20 19 18 16 16
3 3 4 5 2 3 5 5 4 6 5 3 2 3 3 3 3 1 2 2 3 2 2 1 2 1 3 4 3 4 4 6 5 3 3 4 5 7 7 7 7 7 6 6 6 6 6 9 12 16 18 16 14 12 14 17 18 18 18 19 19 17 18 20 20 20 19 17 21 25 25 25 26 24 24 23 22 23 23 22 22 21 21 19 18 16
3 3 3 5 5 3 2 2 3 3 4 4 3 1 1 2 1 2 1 1 3 3 2 1 1 3 5 3 2 5 3 6 9 7 4 3 4 4 6 7 6 6 6 5 6 6 6 9 13 16 18 20 18 15 12 13 14 16 17 19 22 21 19 20 22 24 25 26 25 25 25 26 26 24 24 25 25 25 24 24 23 21 21 21 19 17
2 2 3 2 3 2 2 3 3 2 2 2 2 2 3 3 3 3 1 2 1 3 3 4 2 5 5 2 3 4 3 5 8 10 7 4 5 4 4 6 6 6 6 5 6 6 6 9 12 14 17 19 20 18 15 14 14 17 20 20 21 22 20 20 23 25 25 26 24 22 21 22 24 25 25 26 28 27 26 26 25 22 21 20 19 18
3 3 3 0 1 2 5 3 3 4 1 3 2 2 3 2 4 6 3 3 0 1 1 4 3 5 5 3 5 5 4 6 7 9 8 5 5 5 4 5 6 6 5 5 5 5 7 9 12 14 16 18 19 19 17 16 15 17 20 20 20 21 20 18 21 23 23 20 17 17 16 14 17 22 25 26 28 27 26 26 26 23 22 21 20 20
2 4 3 2 3 3 4 2 4 7 7 5 3 4 4 2 1 4 5 3 2 1 1 3 1 4 5 3 3 4 5 6 5 7 8 7 5 5 6 5 5 5 5 5 5 5 8 11 12 13 15 16 18 19 19 18 16 16 17 19 19 18 18 17 18 20 20 15 14 15 16 13 13 17 18 18 22 24 24 26 26 24 23 22 21 21
1 1 3 3 3 5 6 5 6 6 5 2 2 4 4 4 5 3 2 3 3 1 3 5 2 5 5 3 2 6 8 8 6 6 7 7 6 5 5 5 5 5 4 5 5 5 7 8 9 11 13 15 17 18 19 20 19 18 17 19 20 18 17 17 17 17 16 15 17 18 18 18 19 20 17 12 14 19 22 23 25 23 22 22 21 21
2 2 3 4 3 0 1 1 2 3 3 2 3 5 5 5 6 3 2 4 2 1 2 5 4 4 4 3 6 8 9 8 6 6 6 6 6 5 5 6 5 5 5 5 5 5 5 6 7 10 13 15 17 19 19 20 21 21 20 19 21 21 21 20 20 20 19 18 19 19 19 21 20 19 20 15 12 14 16 17 19 19 19 20 19 19
3 2 3 6 6 5 4 4 3 0 2 3 5 7 5 4 5 4 4 3 3 2 2 2 5 3 1 3 5 6 8 9 6 7 7 5 6 6 6 6 5 5 5 5 4 4 4 4 5 8 11 13 16 18 20 20 21 21 22 22 23 24 24 24 23 22 21 17 15 15 17 21 18 15 18 17 14 15 17 16 14 14 15 15 15 14
5 2 1 5 4 4 5 2 2 2 3 3 6 7 5 4 5 6 4 0 3 4 2 5 2 5 1 3 2 1 5 9 7 7 7 7 7 6 5 6 6 5 5 5 5 5 4 4 4 6 10 12 14 16 18 19 19 19 20 20 21 21 21 22 21 19 17 15 12 11 12 15 15 14 14 14 15 17 17 15 13 12 13 14 14 14
6 1 2 4 3 2 3 3 4 5 4 3 5 5 4 5 6 6 3 1 4 4 3 2 6 6 2 6 6 5 2 4 5 3 4 3 3 3 3 4 5 5 6 6 6 6 6 5 4 7 10 11 13 16 17 18 17 16 17 16 16 16 16 16 16 14 13 12 10 9 8 9 11 12 12 12 13 13 13 11 11 11 13 14 14 14
4 1 1 4 4 3 4 5 7 7 6 5 5 5 3 4 6 6 3 3 7 5 4 6 10 6 3 4 4 5 5 4 6 6 7 7 6 6 6 5 4 3 3 5 6 7 7 7 7 9 11 12 13 14 16 17 15 14 14 14 12 13 12 12 12 11 11 10 9 9 9 8 8 8 9 9 8 9 8 8 8 8 9 10 11 12
4 1 1 4 4 4 4 5 7 7 6 6 7 7 5 5 6 5 3 4 7 6 4 8 10 5 4 4 4 5 6 8 10 9 9 8 7 8 8 6 4 3 1 0 2 3 4 7 9 11 12 12 11 12 13 14 14 14 13 12 11 10 10 10 10 9 9 9 9 9 9 8 7 7 8 7 6 6 6 6 6 7 8 9 10 11
3 1 1 5 4 3 3 5 5 5 7 7 7 9 8 6 6 4 4 4 4 5 4 7 7 2 5 4 4 6 9 11 10 8 7 7 7 8 8 7 6 5 3 2 2 4 4 4 5 7 12 15 13 13 14 13 13 12 11 10 9 8 7 7 7 6 6 7 7 7 7 6 7 8 8 7 6 6 6 6 7 7 7 8 9 9
3 3 2 4 3 3 3 4 5 5 6 4 3 5 5 3 7 6 7 9 5 4 4 4 3 2 5 4 6 8 10 10 9 7 6 6 7 8 7 6 7 7 6 4 4 7 7 8 10 9 8 15 17 14 13 14 13 12 11 10 9 8 6 5 5 5 6 6 5 6 6 6 7 8 7 7 6 5 5 4 3 2 2 2 3 5
2 5 2 3 4 2 4 3 6 4 2 3 5 4 1 7 13 11 7 8 8 5 4 3 3 1 4 5 7 8 8 8 7 7 6 6 6 6 7 7 7 7 8 8 7 7 8 11 14 14 12 11 15 14 12 12 12 10 9 8 7 7 6 4 4 4 5 5 4 4 5 5 5 6 7 7 7 7 6 5 4 3 1 1 1 2
3 5 2 2 4 3 2 5 5 1 4 5 3 4 4 11 15 14 10 9 9 7 6 5 4 4 5 5 4 4 6 7 8 9 9 8 6 6 6 7 7 7 7 7 7 7 10 12 13 11 10 11 12 13 12 10 9 7 6 5 5 6 5 4 4 3 3 6 5 3 4 4 3 5 7 7 6 6 4 3 2 2 1 2 2 3
5 4 3 2 3 2 1 3 2 5 3 1 3 4 5 6 8 10 10 9 8 6 5 5 5 6 6 5 4 1 2 4 8 9 8 8 7 7 6 6 6 6 6 7 8 10 12 12 10 7 6 6 9 12 12 10 8 7 7 5 4 4 2 1 1 1 2 5 7 5 5 5 4 5 6 5 4 4 3 4 3 3 4 5 6 6
7 4 3 2 2 3 4 3 2 2 1 2 4 3 2 2 2 3 5 3 5 5 4 4 5 7 6 6 6 4 2 2 7 7 6 6 6 6 6 6 6 5 6 8 11 11 11 9 7 7 7 6 7 7 7 8 7 7 6 5 4 3 3 2 3 4 4 3 5 7 8 8 7 7 7 7 5 5 5 5 5 5 5 6 8 8
5 4 5 4 2 3 5 2 1 2 4 3 4 5 3 3 3 4 6 3 4 5 4 4 5 6 6 6 7 6 3 5 6 5 6 6 5 5 6 6 7 7 6 7 8 8 9 8 4 3 5 8 8 7 6 7 6 6 6 5 4 4 4 3 4 5 5 4 3 2 5 7 7 7 8 8 7 7 7 7 7 6 6 7 8 9
6 2 4 4 2 3 5 3 3 3 4 4 5 7 7 5 2 4 6 2 3 6 5 4 5 6 5 4 6 6 6 5 3 5 5 6 6 6 7 7 8 9 7 6 6 7 9 10 8 5 4 5 8 8 7 7 6 4 5 7 7 8 8 7 7 7 5 4 5 6 5 4 5 5 6 6 7 7 8 8 8 8 8 8 8 9
7 4 4 4 2 1 4 3 1 2 1 2 5 7 8 6 3 6 3 2 3 5 6 4 6 6 5 4 4 5 5 2 2 5 5 5 6 9 10 10 12 13 12 11 12 12 13 14 14 13 11 10 11 11 11 11 9 6 8 9 10 10 9 9 10 11 10 9 9 9 8 7 7 6 5 5 6 7 9 10 11 11 10 9 9 9
4 4 3 3 2 2 3 3 2 1 1 3 5 8 8 4 6 5 4 5 1 4 5 5 6 6 5 5 4 3 1 2 4 5 5 5 6 8 10 13 15 17 17 17 17 17 17 17 17 15 15 16 17 17 16 16 15 12 11 12 13 13 11 11 12 13 13 13 13 11 11 10 9 9 8 8 9 11 12 13 14 13 11 10 10 9
3 3 3 2 2 2 2 3 2 1 1 3 4 6 5 4 4 1 3 2 2 3 4 5 5 5 5 5 3 2 3 5 4 3 5 6 5 6 8 12 14 16 19 21 20 19 18 17 17 16 17 19 20 20 20 18 17 15 12 12 13 14 13 14 15 15 14 14 15 15 15 13 11 10 10 10 10 11 12 12 13 13 12 11 10 9
1 1 2 2 1 2 3 3 2 1 2 3 2 5 6 4 1 2 1 3 3 3 4 4 4 3 3 4 4 4 5 5 5 5 6 5 6 7 9 11 10 10 13 17 19 20 19 16 14 15 17 19 20 22 23 21 18 17 15 14 14 14 13 14 14 15 15 14 14 14 14 13 11 10 9 9 10 11 12 12 12 13 14 13 11 9
2 1 1 1 1 2 3 2 1 1 2 3 3 3 3 2 1 1 3 3 3 3 3 3 3 3 2 3 4 5 5 6 6 6 7 7 6 7 10 12 13 13 13 13 16 18 18 16 15 16 17 19 19 20 20 20 19 18 16 14 12 10 10 10 10 12 14 15 15 15 14 12 11 10 10 11 12 14 15 16 15 15 16 15 13 11
2 0 2 2 3 4 3 2 3 3 4 6 6 4 3 2 1 3 5 2 2 1 0 2 3 4 3 2 4 4 4 5 6 6 6 7 7 7 9 12 14 15 16 15 16 16 15 15 16 17 18 18 17 16 16 16 16 15 13 10 7 4 4 5 5 6 8 10 11 12 12 12 12 12 12 13 14 17 19 20 18 17 17 17 16 14
2 1 2 4 4 5 4 4 4 5 5 5 4 4 3 3 3 3 4 2 3 3 2 2 3 4 4 3 3 4 4 6 6 7 7 7 7 9 11 13 14 15 15 16 16 16 14 14 15 16 16 17 16 15 15 15 14 14 14 12 9 7 6 5 5 6 5 6 7 8 10 11 12 13 14 16 17 18 19 18 17 16 17 19 19 17
3 3 4 3 2 3 3 3 2 2 4 4 3 3 3 4 4 4 4 4 4 4 4 4 4 4 5 5 5 5 6 6 6 7 7 6 7 9 11 13 14 15 16 16 16 16 15 14 14 13 13 15 17 16 16 17 17 16 15 14 13 13 11 10 9 9 9 8 8 8 8 11 12 12 12 14 16 16 15 15 15 16 17 19 20 18
2 2 3 3 2 3 3 2 3 2 5 4 5 3 3 4 4 4 5 4 5 5 6 7 6 5 5 5 5 5 6 7 7 7 7 6 7 9 11 14 15 15 14 14 13 13 13 12 12 12 13 15 15 15 17 19 20 19 16 14 13 13 14 13 12 11 11 11 11 10 9 11 12 13 13 13 13 12 11 12 14 16 18 20 21 19
2 3 1 1 3 3 0 3 4 1 2 3 6 5 4 4 3 4 5 5 5 6 6 7 8 6 5 5 5 5 5 6 6 7 7 7 7 9 12 14 15 14 13 13 12 12 13 14 15 15 16 17 17 18 19 20 20 19 16 13 12 12 13 15 15 15 15 13 13 13 12 12 13 15 16 15 12 11 11 12 14 15 16 17 17 15
3 2 1 2 4 2 2 3 2 1 1 4 5 5 4 3 4 5 5 5 5 5 5 6 7 7 7 8 8 7 5 6 7 8 8 7 8 12 15 15 15 16 17 18 18 17 17 17 18 18 19 21 21 20 19 18 18 18 16 14 12 11 11 13 14 16 16 15 14 14 14 14 15 16 15 14 13 13 14 14 15 17 16 15 14 14
3 2 2 3 3 3 5 4 2 3 2 4 5 4 4 4 5 5 5 5 4 5 5 5 6 7 7 9 11 10 6 7 10 10 8 8 11 15 16 16 16 18 20 20 20 19 19 19 19 18 18 19 20 19 18 19 20 21 21 20 18 16 14 13 13 14 14 13 12 12 12 12 14 14 13 14 15 16 17 16 14 14 14 13 13 14
Wind_Direction
129 166 259 218 222 226 224 202 205 236 235 231 216 182 252 293 304 291 289 257 144 142 185 166 149 156 282 198 173 151 141 136 139 145 148 154 160 163 166 169 178 192 190 177 174 173 173 170 165 169 171 157 148 148 150 150 151 153 153 153 151 154 156 154 153 152 149 143 141 143 144 145 145 147 148 146 146 139 131 130 125 114 101 108 129 145
95 178 240 229 218 218 226 215 210 239 248 220 87 356 315 327 293 298 325 357 88 115 134 131 121 142 237 227 148 138 148 164 157 154 160 164 169 170 166 168 174 184 176 162 170 176 173 173 177 176 168 157 150 149 152 154 155 157 157 155 154 157 160 160 158 156 154 149 145 145 147 149 149 152 150 141 137 133 128 125 117 110 100 108 106 97
64 229 243 237 222 216 253 244 201 224 251 7 63 50 317 298 295 305 330 359 33 92 270 218 125 190 252 277 151 153 160 181 175 167 169 167 166 173 173 168 165 161 162 167 178 182 173 174 179 173 167 162 154 152 155 156 157 158 158 157 158 160 162 163 160 157 156 155 153 149 147 148 147 148 152 148 144 143 140 135 131 128 120 125 116 96
218 241 242 237 205 176 255 252 161 73 0 298 262 109 270 276 322 308 312 345 15 66 139 125 88 274 292 343 128 159 164 176 181 174 169 168 170 178 181 169 160 160 165 172 179 181 166 169 176 169 166 162 155 154 156 158 161 161 161 162 162 165 167 167 163 161 161 159 157 152 147 146 144 142 146 147 147 151 151 147 146 143 132 134 131 117
239 250 257 254 199 179 208 227 149 85 355 286 234 176 196 234 223 247 288 342 358 4 54 76 30 327 346 10 346 146 154 169 175 169 172 188 180 171 176 171 164 164 167 168 173 181 166 166 173 167 165 162 157 158 160 163 165 163 166 166 166 169 170 170 168 169 169 163 156 149 142 140 135 134 138 139 140 142 142 139 134 126 126 130 122 112
251 254 259 261 209 180 181 208 184 143 178 307 256 205 195 194 226 261 304 18 28 350 337 78 50 297 333 353 292 315 167 179 181 178 180 189 182 167 175 178 168 162 170 171 171 177 167 158 167 168 166 164 161 164 165 168 169 169 170 169 170 172 173 178 181 179 175 167 159 153 146 141 136 136 139 139 139 139 139 135 130 126 124 121 114 98
255 242 213 197 177 161 163 194 206 151 127 297 248 200 177 161 178 240 301 47 77 291 298 85 119 257 320 326 280 278 171 184 193 193 184 175 180 185 185 182 169 162 176 180 173 169 157 155 164 170 171 167 167 169 170 172 174 174 173 172 174 177 179 183 184 181 175 168 165 163 158 151 146 145 144 142 141 141 143 142 139 140 137 128 118 99
268 254 185 167 138 136 141 196 216 141 119 231 245 189 153 135 135 149 117 91 191 238 325 17 97 138 305 288 261 149 126 205 220 210 193 181 184 184 185 186 172 165 170 169 165 163 160 166 168 172 175 172 171 172 173 176 177 179 178 176 177 180 180 177 175 177 175 169 167 165 161 157 154 151 147 145 143 140 141 139 135 133 137 139 131 113
271 232 197 171 117 130 171 213 202 137 133 238 240 203 170 153 151 140 107 91 13 49 334 319 47 93 279 280 285 67 103 216 219 196 184 183 183 178 180 183 168 160 165 164 168 172 173 175 173 175 178 176 174 176 177 179 180 182 182 178 180 184 180 174 172 174 174 170 167 165 162 158 157 154 149 147 144 141 140 139 137 135 136 142 143 135
255 220 200 157 125 181 217 222 182 143 198 246 222 208 13 94 113 103 100 92 47 57 260 275 352 98 270 290 317 7 62 203 204 199 187 169 166 166 164 167 158 152 163 172 177 177 179 181 179 177 177 176 177 178 179 181 182 184 184 181 183 187 182 176 175 174 172 169 167 167 163 159 159 156 152 149 148 151 151 147 146 144 141 142 143 143
273 245 196 148 161 189 196 210 187 169 202 241 55 39 21 19 23 49 75 85 68 14 257 254 172 115 286 289 279 288 262 184 154 130 103 129 144 153 150 153 155 155 167 179 180 173 175 182 182 177 175 176 177 177 178 181 183 184 185 184 185 189 187 181 180 179 176 172 170 169 166 163 163 160 156 154 154 158 159 155 152 149 145 144 143 139
324 317 214 219 191 158 121 175 266 193 145 89 69 65 47 357 5 18 6 48 91 251 263 262 143 102 115 272 260 279 293 184 148 135 112 117 134 138 133 140 146 150 158 161 158 147 151 167 175 175 176 178 177 176 177 180 184 186 185 185 185 187 188 185 184 184 180 174 171 169 167 166 166 165 162 160 161 164 164 160 156 153 151 149 149 146
332 274 254 283 232 146 111 24 318 345 45 84 90 77 75 6 12 12 327 2 156 235 252 255 70 88 221 246 256 290 311 304 150 130 125 127 126 121 121 125 125 128 129 126 131 139 150 162 168 173 177 181 182 180 179 179 183 186 185 185 184 186 187 183 183 186 181 172 168 166 167 170 171 172 170 166 166 168 167 165 162 161 159 156 154 152
317 305 303 333 317 147 119 123 256 294 46 134 153 111 110 107 68 315 275 305 248 259 269 281 79 57 283 271 269 301 331 46 88 79 101 112 111 111 109 108 106 103 107 110 113 122 143 167 171 174 179 184 186 186 185 184 184 185 185 185 182 178 176 174 177 185 180 169 166 166 171 176 176 179 178 173 172 173 172 170 168 168 163 158 156 154
158 313 290 182 256 213 139 162 180 167 132 190 173 128 134 145 139 193 211 186 224 255 295 337 56 157 204 268 296 7 52 75 83 76 77 77 84 99 93 88 90 88 92 98 95 97 102 132 167 181 184 186 186 186 189 189 188 186 180 170 129 99 132 162 176 184 180 170 165 168 178 182 182 185 186 181 178 178 178 175 172 170 165 159 157 156
158 247 257 242 221 173 164 194 160 107 56 270 112 95 148 180 151 156 174 175 176 160 304 319 209 208 195 258 313 64 83 82 87 89 85 75 63 76 79 76 80 80 78 80 79 79 68 73 117 176 188 185 181 184 188 188 188 187 178 165 104 91 148 177 185 186 183 174 164 168 183 190 189 188 189 188 186 184 181 179 177 174 168 162 160 159
143 250 275 315 346 181 187 192 152 122 142 280 47 108 224 177 131 120 177 191 101 94 272 256 194 282 333 347 354 52 89 105 116 117 108 107 97 85 87 89 85 82 78 77 77 70 56 58 66 118 177 179 176 180 184 184 188 192 194 195 192 181 181 186 187 186 185 179 169 168 185 196 196 191 189 189 189 188 186 184 184 180 173 169 165 164
139 259 289 7 36 304 270 132 119 133 129 115 151 203 202 66 87 109 125 356 56 108 265 272 174 233 51 259 336 20 48 89 120 131 123 124 123 112 114 113 103 103 100 95 89 73 60 58 60 74 123 163 173 178 181 184 191 195 200 203 194 186 188 190 186 184 186 184 176 173 185 198 200 196 193 193 191 190 190 191 191 189 183 177 172 168
121 91 296 332 36 311 338 54 24 332 60 125 174 181 97 91 330 48 112 135 103 165 274 320 195 141 133 235 301 353 335 87 29 61 112 126 131 124 119 108 97 96 89 80 76 68 60 57 61 73 89 123 156 171 178 183 190 194 200 205 199 193 195 193 186 181 184 186 181 182 191 199 200 199 197 195 195 194 195 195 196 196 192 185 180 175
99 114 273 299 337 340 356 47 31 328 337 38 67 26 53 134 163 147 135 153 139 165 235 330 5 313 237 239 289 299 230 153 107 56 57 100 121 121 120 110 96 95 91 85 82 75 70 67 68 78 85 96 119 145 167 179 187 193 200 208 208 203 193 188 186 182 186 196 194 191 195 198 198 198 198 199 199 200 199 199 198 199 197 192 187 183
59 100 213 292 335 34 21 26 35 343 324 348 356 0 40 67 101 130 105 90 118 138 174 133 35 276 256 247 277 285 247 152 133 126 123 129 121 118 122 116 109 107 102 101 99 91 88 84 80 84 90 95 104 118 141 166 184 192 198 204 206 201 188 182 185 184 188 197 201 200 195 193 193 192 195 202 203 202 202 201 198 196 196 195 192 191
76 118 166 291 348 52 231 262 9 333 248 220 243 204 133 113 110 114 18 316 108 130 160 145 153 265 260 215 233 247 190 145 139 133 133 137 128 124 122 117 116 115 111 113 112 103 97 94 91 92 95 98 101 108 125 148 170 183 191 198 199 195 186 181 183 185 186 190 197 202 196 193 196 195 198 205 206 205 203 200 196 193 192 194 195 195
125 102 100 92 246 217 243 243 44 14 19 114 79 39 75 102 115 124 183 257 73 88 152 117 115 264 261 207 218 229 167 132 133 128 122 116 115 113 103 98 100 107 115 118 110 105 102 98 96 96 96 98 100 105 117 135 154 169 183 193 194 189 185 181 183 187 188 189 199 207 199 197 202 200 204 209 207 203 200 196 195 193 193 194 195 197
68 81 71 328 291 299 303 330 43 30 41 59 16 15 42 20 90 134 169 177 117 72 147 96 76 264 275 279 223 192 114 93 93 107 113 111 102 103 106 103 102 109 111 108 107 113 111 104 100 98 96 98 101 104 111 124 142 157 171 182 187 190 190 186 186 187 187 194 209 206 191 186 191 191 196 204 203 198 195 193 195 196 195 193 192 194
33 100 91 56 2 345 346 355 4 8 26 43 314 351 32 28 28 41 55 77 76 220 150 121 178 246 274 321 53 86 84 83 76 77 97 109 105 102 107 108 114 119 115 118 122 117 111 108 106 108 107 107 108 109 112 120 133 148 161 173 180 186 189 189 190 188 185 195 200 187 171 172 185 189 185 190 203 201 196 191 189 189 189 189 189 191
106 124 107 109 123 215 292 294 309 332 345 334 328 354 16 36 44 51 49 64 94 215 101 118 182 248 294 26 81 92 91 90 87 89 94 107 118 119 120 125 136 141 137 141 137 119 111 111 114 117 116 115 115 115 116 120 127 138 148 161 171 176 179 184 190 189 186 189 187 175 169 176 185 191 189 191 206 211 209 202 191 185 184 187 189 190
88 79 100 125 146 175 191 213 239 352 20 332 327 346 3 23 47 83 84 82 150 120 39 199 179 163 56 77 105 126 125 119 125 129 125 133 143 146 150 152 151 148 146 147 135 114 101 102 114 119 116 115 116 118 119 121 124 131 138 147 157 165 171 177 183 185 185 187 181 174 180 186 190 195 194 196 207 217 221 220 209 200 200 201 204 209
85 52 98 116 136 176 174 192 305 33 49 354 340 349 359 18 48 75 72 140 155 98 333 275 135 117 179 344 16 232 165 145 147 150 152 161 159 155 162 157 144 133 130 125 121 119 116 111 104 109 114 115 117 118 118 119 120 124 129 136 146 155 162 167 171 176 180 181 178 175 181 189 197 206 203 199 206 216 222 226 226 227 228 228 230 237
103 137 188 120 102 107 100 55 38 59 62 44 27 4 358 30 64 84 72 213 138 124 219 234 81 89 322 338 353 329 322 122 121 111 114 114 108 102 101 116 120 119 121 123 127 126 126 131 123 117 122 123 123 122 122 120 119 121 125 129 136 144 152 160 164 168 173 173 174 180 191 199 206 214 213 205 205 213 222 231 237 241 241 241 243 248
99 161 199 105 82 42 37 41 51 56 50 44 32 11 31 73 83 93 84 79 92 100 158 126 88 71 359 342 347 342 359 60 71 54 50 47 47 62 68 73 72 70 105 133 144 140 133 133 132 127 126 129 131 131 129 125 121 121 126 128 132 137 144 154 158 159 164 168 169 177 186 189 191 202 210 211 213 220 226 230 233 236 239 243 248 251
72 183 242 84 70 346 358 48 58 62 69 59 26 3 20 60 59 58 47 53 78 79 84 91 80 47 347 335 341 2 35 60 57 48 45 41 44 57 58 53 43 20 338 142 143 141 131 127 128 127 125 124 131 136 134 130 125 125 129 130 130 133 139 148 152 153 156 158 162 169 173 179 190 199 205 211 219 222 225 232 236 240 248 254 259 262
73 122 352 69 76 303 331 57 55 62 70 58 25 357 357 33 62 60 28 26 98 131 96 70 71 8 312 329 13 35 52 62 59 48 44 39 39 51 52 38 26 9 337 330 56 48 37 55 87 112 119 114 114 126 137 143 139 135 138 139 135 132 135 139 139 145 154 150 152 164 170 180 197 200 204 215 225 225 227 236 245 253 264 270 275 279
102 105 83 91 96 288 307 65 64 57 48 16 332 323 324 59 84 70 32 18 37 116 108 87 118 255 301 351 56 58 57 64 63 52 49 43 35 39 43 39 33 25 15 21 59 65 55 39 25 26 81 105 102 104 121 134 132 127 130 135 137 142 150 154 146 145 156 161 167 181 185 189 197 201 205 208 208 204 199 197 202 217 261 287 299 300
89 100 132 129 113 251 285 35 56 51 41 254 267 293 277 106 92 78 48 16 17 49 84 110 134 320 345 35 71 77 75 75 70 63 61 57 48 40 33 32 36 39 41 44 54 63 66 64 52 30 22 56 80 88 103 117 115 112 119 126 136 146 144 149 163 164 175 187 194 198 191 186 183 179 171 164 159 158 155 149 141 129 104 28 347 337
129 119 145 117 116 181 299 45 58 258 218 213 268 349 80 105 98 88 67 30 19 33 56 64 41 4 15 44 71 107 111 95 76 63 54 49 49 44 33 27 32 41 48 48 50 52 44 47 59 53 25 22 46 68 83 92 90 88 92 106 141 158 149 147 166 185 209 206 202 202 197 197 192 170 161 160 161 163 169 183 197 211 253 284 302 315
140 143 156 141 127 148 93 85 153 228 219 161 348 7 62 79 79 77 59 25 8 14 37 48 22 358 7 21 22 62 150 98 69 56 51 52 53 47 36 21 23 42 62 57 50 45 33 21 17 25 30 30 39 52 60 59 58 60 58 64 96 125 125 142 215 301 270 216 211 217 213 216 228 212 195 194 199 200 210 223 237 255 268 278 284 289
142 142 154 183 180 141 146 164 194 226 236 5 346 339 45 9 340 102 95 44 359 5 22 39 22 4 2 8 6 340 285 60 49 27 18 39 53 60 54 33 23 33 52 60 60 53 41 28 4 340 335 349 10 23 30 23 21 28 32 41 59 62 55 34 1 346 333 281 236 226 223 232 246 235 216 215 223 227 229 227 232 248 262 276 284 287
144 160 168 188 200 113 118 149 155 181 214 250 289 285 288 284 246 150 117 90 346 347 5 40 28 2 358 7 3 350 1 54 39 349 335 358 17 44 50 46 50 50 41 47 59 51 31 27 28 337 308 306 306 308 316 319 321 342 351 347 349 346 338 341 344 346 354 0 349 278 240 238 241 229 215 219 226 224 222 221 223 239 258 273 284 292
49 81 130 140 155 114 121 148 173 179 210 247 277 298 311 303 272 103 94 65 328 329 339 29 28 351 342 5 13 24 52 54 0 315 320 335 351 15 23 20 25 28 27 28 29 19 7 2 1 357 334 294 286 296 306 298 285 284 297 298 298 303 308 306 300 303 315 327 334 329 306 265 246 238 231 236 235 226 226 231 240 258 269 270 275 286
27 26 63 78 66 117 122 122 133 130 142 273 278 293 301 308 28 83 111 254 313 334 328 10 35 8 356 18 36 57 72 62 302 294 301 322 1 17 18 12 3 1 9 16 12 6 3 1 355 344 332 319 311 311 312 308 300 271 254 265 274 275 282 287 285 287 291 292 296 303 299 286 278 273 265 259 259 262 265 267 271 274 269 260 260 272
15 13 50 83 68 49 87 99 111 109 334 292 287 292 298 337 54 92 195 228 304 352 349 29 46 27 22 36 45 61 86 243 251 274 304 345 13 11 9 10 4 359 0 2 3 5 3 359 357 350 337 330 325 316 304 298 298 289 269 258 256 256 254 255 260 267 273 278 283 285 282 280 276 274 275 278 283 287 285 282 279 273 262 253 253 262
11 6 24 54 42 26 72 108 109 76 270 248 269 313 345 51 79 175 208 164 78 27 20 41 42 25 25 29 20 340 287 275 275 311 338 357 0 348 353 2 2 358 352 348 349 355 355 351 351 351 346 341 339 332 319 302 291 289 282 264 256 257 257 256 258 258 260 265 271 273 274 277 278 278 280 282 285 288 288 286 280 268 255 249 251 262
9 39 35 19 7 38 59 77 98 131 266 260 287 352 22 71 169 256 68 72 54 36 33 34 29 21 26 15 345 325 318 319 330 341 341 340 340 337 337 342 346 348 346 341 337 338 340 342 342 342 338 336 337 339 335 324 304 288 276 271 274 277 273 268 263 257 253 254 256 260 265 267 269 271 274 278 284 289 291 291 282 267 255 250 251 262
10 61 90 14 1 67 61 52 82 185 325 16 62 74 75 117 187 117 86 49 7 15 27 14 351 336 11 23 343 325 327 331 330 330 333 332 330 328 327 329 331 331 330 330 327 324 325 326 327 330 330 329 330 333 334 332 322 303 281 272 276 277 273 275 272 262 256 252 248 248 251 253 256 261 265 274 283 287 290 290 284 270 257 250 250 253
332 223 121 71 69 89 95 71 71 82 56 53 73 96 99 77 58 98 109 86 352 317 301 12 332 305 310 357 335 321 316 314 312 313 315 314 309 308 311 314 315 315 314 314 315 315 313 313 317 321 322 323 327 331 329 327 325 320 309 298 288 266 245 252 262 263 262 259 255 252 250 248 250 257 264 272 279 282 282 282 283 278 262 247 240 238
303 322 76 86 99 98 74 39 47 81 81 70 82 96 79 43 23 60 89 58 334 309 307 336 309 294 298 317 324 316 297 292 299 302 302 303 300 299 301 300 301 304 304 304 307 308 305 303 307 310 312 314 317 320 321 319 314 311 311 308 305 302 289 267 255 254 255 259 263 267 266 262 258 259 264 267 269 271 271 270 276 281 268 246 233 228
322 20 62 74 107 106 77 1 345 103 105 84 85 91 62 36 17 29 45 15 346 347 351 349 342 334 339 344 340 325 309 305 308 303 299 300 297 294 295 294 294 297 299 301 308 311 306 301 302 303 305 309 311 311 311 309 306 304 302 297 292 293 292 286 275 267 261 260 264 270 277 277 270 262 259 261 261 264 266 266 270 275 264 241 224 215
319 43 66 49 44 109 152 263 291 191 151 101 67 45 33 35 28 30 36 21 11 15 7 360 0 359 355 351 343 329 320 318 317 311 306 302 296 293 292 291 292 296 303 311 318 321 317 312 310 306 302 302 307 308 305 301 298 298 299 296 290 283 279 276 273 268 264 262 263 265 270 274 270 259 249 251 257 260 261 260 261 261 251 233 219 207
349 34 55 64 49 60 94 319 335 243 178 59 40 28 26 44 47 41 39 38 36 29 12 359 355 349 345 343 336 334 338 332 328 329 326 315 309 310 310 310 312 315 319 321 320 317 313 308 304 301 299 297 299 299 298 296 291 288 288 290 290 287 282 277 273 268 264 259 257 260 263 268 271 264 253 246 242 236 232 229 225 225 224 220 216 214
44 37 9 69 67 41 284 297 348 103 252 316 351 8 17 39 60 50 35 35 37 27 4 351 347 348 358 6 7 6 355 339 336 338 332 324 327 329 326 326 328 328 325 322 317 311 306 302 298 295 294 294 296 293 288 283 280 279 281 283 285 290 295 293 287 277 268 260 255 256 258 261 267 265 254 240 225 213 209 207 204 203 205 209 216 222
109 142 149 122 134 203 225 227 185 139 205 283 319 357 4 25 56 50 37 36 28 7 1 4 3 2 5 10 13 10 351 331 334 334 327 321 323 322 320 320 321 319 316 315 313 310 306 303 302 300 297 297 298 294 288 283 280 280 281 282 283 285 289 295 300 295 282 268 257 252 250 253 259 260 249 231 217 208 203 198 195 196 198 202 208 211